Moffett NAS, CA

8:18 PM PDT on June 22, 2017 (GMT -0700)
Moffett Federal Air Field

Weather History for KNUQ - October, 2012

Change the Weather History Date:

Thursday, October 4, 2012

  Actual Average Record
Temperature  
Mean Temperature 66 °F 66 °F  
Max Temperature 74 °F 76 °F 94 °F (1987)
Min Temperature 58 °F 56 °F 43 °F (1955)
Degree Days  
Heating Degree Days 0    
Month to date heating degree days 0  
Since 1 July heating degree days 46  
Cooling Degree Days 1    
Month to date cooling degree days 32  
Year to date cooling degree days 290  
Growing Degree Days 16 (Base 50)    
Moisture  
Dew Point 55 °F    
Average Humidity 70    
Maximum Humidity 87    
Minimum Humidity 53    
Precipitation  
Precipitation 0.00 in 0.01 in 0.29 in (2006)
Month to date precipitation 0.00 0.04  
Year to date precipitation 5.51 9.88  
Since 1 July precipitation T  
Sea Level Pressure  
Sea Level Pressure 30.09 in    
Wind  
Wind Speed 5 mph (North)    
Max Wind Speed 18 mph    
Max Gust Speed 21 mph    
Visibility 10 miles    
Events      
T = Trace of Precipitation, MM = Missing Value Source: NWS Daily Summary

Daily Weather History Graph

Daily Weather History Graph

Search for Another Location

Airport or City:

Trip Planner

Search our weather history database for the weather conditions in past years. The results will help you decide how hot, cold, wet, or windy it might be!

Date:

Astronomy

Oct. 04, 2012 Rise Set
Actual Time 7:06 AM PDT 6:46 PM PDT
Civil Twilight 6:40 AM PDT 7:12 PM PDT
Nautical Twilight 6:10 AM PDT 7:42 PM PDT
Astronomical Twilight 5:40 AM PDT 8:12 PM PDT
Moon 9:31 PM PDT (10/4) 11:22 AM PDT (10/4)
Length of Visible Light 12h 31m
Length of Day
11h 39m
Waning Gibbous, 81% of the Moon is Illuminated
Oct 4
Waning Gibbous
Oct 8
Last Quarter
Oct 15
New
Oct 21
First Quarter
Oct 29
Full

Hourly Weather History & Observations

Time (PDT) Temp. Dew Point Humidity Pressure Visibility Wind Dir Wind Speed Gust Speed Precip Events Conditions
12:56 AM 61.0 °F 55.9 °F 83% 30.02 in 10.0 mi ESE 3.5 mph - N/A   Clear
1:56 AM 61.0 °F 54.0 °F 78% 30.03 in 10.0 mi Calm Calm - N/A   Clear
2:56 AM 60.1 °F 54.0 °F 80% 30.03 in 10.0 mi Calm Calm - N/A   Clear
3:56 AM 60.1 °F 55.9 °F 86% 30.02 in 10.0 mi Calm Calm - N/A   Clear
4:56 AM 59.0 °F 55.9 °F 90% 30.04 in 10.0 mi Calm Calm - N/A   Clear
5:56 AM 60.1 °F 55.9 °F 86% 30.05 in 10.0 mi Calm Calm - N/A   Partly Cloudy
6:08 AM 60.8 °F 55.4 °F 82% 30.05 in 10.0 mi Calm Calm - N/A   Mostly Cloudy
6:56 AM 61.0 °F 55.9 °F 83% 30.07 in 10.0 mi Calm Calm - N/A   Overcast
7:56 AM 62.1 °F 55.0 °F 78% 30.09 in 10.0 mi Calm Calm - N/A   Overcast
8:56 AM 63.0 °F 55.0 °F 75% 30.11 in 10.0 mi Calm Calm - N/A   Overcast
9:56 AM 64.0 °F 55.0 °F 73% 30.13 in 10.0 mi SE 4.6 mph - N/A   Overcast
10:35 AM 66.2 °F 55.4 °F 68% 30.12 in 10.0 mi NNE 3.5 mph - N/A   Partly Cloudy
10:56 AM 68.0 °F 55.0 °F 63% 30.13 in 10.0 mi NW 4.6 mph - N/A   Clear
11:56 AM 70.0 °F 55.0 °F 59% 30.12 in 10.0 mi Calm Calm - N/A   Clear
12:56 PM 71.1 °F 55.0 °F 57% 30.12 in 10.0 mi NW 8.1 mph - N/A   Clear
1:56 PM 72.0 °F 55.9 °F 57% 30.10 in 10.0 mi NNW 10.4 mph - N/A   Clear
2:56 PM 73.0 °F 55.0 °F 53% 30.09 in 10.0 mi NNW 9.2 mph - N/A   Clear
3:56 PM 71.1 °F 55.9 °F 59% 30.09 in 10.0 mi NNW 12.7 mph - N/A   Clear
4:56 PM 68.0 °F 57.0 °F 68% 30.09 in 10.0 mi NNW 15.0 mph - N/A   Clear
5:56 PM 66.9 °F 55.9 °F 68% 30.10 in 10.0 mi North 16.1 mph - N/A   Clear
6:56 PM 64.0 °F 54.0 °F 70% 30.12 in 10.0 mi North 12.7 mph - N/A   Clear
7:56 PM 63.0 °F 54.0 °F 72% 30.13 in 10.0 mi North 6.9 mph - N/A   Clear
8:56 PM 61.0 °F 55.0 °F 81% 30.14 in 10.0 mi NNE 8.1 mph - N/A   Clear
9:56 PM 61.0 °F 55.0 °F 81% 30.15 in 10.0 mi North 8.1 mph - N/A   Clear
10:56 PM 60.1 °F 54.0 °F 80% 30.16 in 10.0 mi NNE 4.6 mph - N/A   Clear
11:56 PM 60.1 °F 54.0 °F 80% 30.17 in 10.0 mi Calm Calm - N/A   Clear